This is the latest recevied weather packets stored in our database for station/object N8QF. If no packets are shown the sender has not sent any weather packets the latest 10 day(s).
| Time | Temp. | Humidity | Pressure | Rain* | Wind** | Luminosity | Snow |
|---|---|---|---|---|---|---|---|
| 1777937087 | 23.33° C | 44% | 1004.6 hPa | 0 mm | - | - | - |
| 1777936786 | 23.33° C | 46% | 1004.5 hPa | 0 mm | - | - | - |
| 1777936486 | 23.33° C | 47% | 1004.8 hPa | 0 mm | - | - | - |
| 1777936186 | 23.33° C | 45% | 1004.9 hPa | 0 mm | - | - | - |
| 1777935886 | 23.33° C | 46% | 1004.9 hPa | 0 mm | - | - | - |
| 1777935586 | 22.78° C | 45% | 1005 hPa | 0 mm | - | - | - |
| 1777935285 | 22.78° C | 46% | 1005.1 hPa | 0 mm | - | - | - |
| 1777934985 | 22.78° C | 45% | 1005.1 hPa | 0 mm | - | - | - |
| 1777934685 | 22.78° C | 46% | 1005.2 hPa | 0 mm | - | - | - |
| 1777934385 | 22.78° C | 44% | 1005.3 hPa | 0 mm | - | - | - |
| 1777934084 | 22.78° C | 44% | 1005.4 hPa | 0 mm | - | - | - |
| 1777933784 | 23.33° C | 43% | 1005.3 hPa | 0 mm | - | - | - |
| 1777933484 | 23.89° C | 44% | 1005.3 hPa | 0 mm | - | - | - |
| 1777933184 | 23.33° C | 48% | 1005.3 hPa | 0 mm | - | - | - |
| 1777932884 | 23.33° C | 45% | 1005.4 hPa | 0 mm | - | - | - |
| 1777932584 | 23.33° C | 46% | 1005.4 hPa | 0 mm | - | - | - |
| 1777932283 | 22.78° C | 44% | 1005.4 hPa | 0 mm | - | - | - |
| 1777931983 | 23.33° C | 46% | 1005.2 hPa | 0 mm | - | - | - |
| 1777931680 | 22.78° C | 48% | 1005.4 hPa | 0 mm | - | - | - |
| 1777931380 | 22.22° C | 45% | 1005.7 hPa | 0 mm | - | - | - |
| 1777931080 | 22.22° C | 46% | 1005.8 hPa | 0 mm | - | - | - |
| 1777930779 | 22.22° C | 46% | 1005.8 hPa | 0 mm | - | - | - |
| 1777930479 | 22.22° C | 47% | 1005.9 hPa | 0 mm | - | - | - |
| 1777930179 | 22.22° C | 46% | 1005.9 hPa | 0 mm | - | - | - |
| 1777929879 | 22.78° C | 44% | 1005.9 hPa | 0 mm | - | - | - |
* Rain since midnight (hover to see other rain measurements)
** Current wind speed in m/s (hover to see current wind gust speed)